• In Czech Republic
  • List of Countries
  • For 7 days
  • Water Temperature
  • Satellite Maps
  • Weather Map
  • Weather Widgets
  • user-avatar
    Login

    Hourly Weather Terlizzi

    Today, 16 January, Tuesday

    Time Temperature Precipitation Wind Pressure Humidity
    00:00 +7°C° 0 mm 2 mps 748 mmHg 85%
    01:00 +7°C° 0 mm 2 mps 748 mmHg 86%
    02:00 +7°C° 0 mm 2 mps 748 mmHg 85%
    03:00 +7°C° 0 mm 3 mps 747 mmHg 85%
    04:00 +7°C° 0 mm 3 mps 747 mmHg 84%
    05:00 +6°C° 0 mm 4 mps 747 mmHg 84%
    06:00 +5°C° 0 mm 4 mps 746 mmHg 84%
    07:00 +5°C° 0 mm 4 mps 746 mmHg 85%
    08:00 +7°C° 0 mm 5 mps 746 mmHg 79%
    09:00 +8°C° 0 mm 6 mps 746 mmHg 73%
    10:00 +10°C° 0 mm 7 mps 746 mmHg 67%
    11:00 +11°C° 0 mm 7 mps 745 mmHg 64%
    12:00 +12°C° 0 mm 8 mps 745 mmHg 61%
    13:00 +13°C° 0 mm 8 mps 744 mmHg 59%
    14:00 +12°C° 0 mm 7 mps 744 mmHg 60%
    15:00 +12°C° 0 mm 7 mps 743 mmHg 62%
    16:00 +12°C° 0 mm 7 mps 743 mmHg 63%
    17:00 +11°C° 0 mm 7 mps 743 mmHg 66%
    18:00 +10°C° 0 mm 7 mps 743 mmHg 70%
    19:00 +9°C° 0 mm 7 mps 742 mmHg 73%
    20:00 +9°C° 0 mm 7 mps 742 mmHg 73%
    21:00 +9°C° 0 mm 7 mps 742 mmHg 74%
    22:00 +9°C° 0 mm 7 mps 742 mmHg 74%
    23:00 +9°C° 0 mm 7 mps 741 mmHg 75%

    Tomorrow, 17 January, Wednesday

    Time Temperature Precipitation Wind Pressure Humidity
    00:00 +9°C° 0 mm 7 mps 741 mmHg 76%
    01:00 +9°C° 0 mm 7 mps 741 mmHg 77%
    02:00 +10°C° 0 mm 7 mps 740 mmHg 76%
    03:00 +10°C° 0 mm 7 mps 739 mmHg 76%
    04:00 +10°C° 0 mm 7 mps 739 mmHg 76%
    05:00 +10°C° 0 mm 8 mps 738 mmHg 76%
    06:00 +10°C° 0 mm 8 mps 738 mmHg 76%
    07:00 +10°C° 0 mm 9 mps 737 mmHg 77%
    08:00 +12°C° 0 mm 9 mps 737 mmHg 72%
    09:00 +13°C° 0 mm 10 mps 737 mmHg 66%
    10:00 +14°C° 0 mm 11 mps 737 mmHg 61%
    11:00 +14°C° 0 mm 12 mps 736 mmHg 59%
    12:00 +15°C° 0 mm 12 mps 736 mmHg 56%
    13:00 +15°C° 0 mm 12 mps 735 mmHg 53%
    14:00 +14°C° 0.2 mm 12 mps 735 mmHg 53%
    15:00 +13°C° 0.2 mm 11 mps 735 mmHg 52%
    16:00 +12°C° 0.2 mm 11 mps 735 mmHg 51%
    17:00 +11°C° 0.2 mm 11 mps 736 mmHg 52%
    18:00 +9°C° 0.2 mm 11 mps 737 mmHg 53%
    19:00 +8°C° 0.2 mm 12 mps 737 mmHg 54%
    20:00 +8°C° 0.1 mm 12 mps 738 mmHg 50%
    21:00 +7°C° 0.1 mm 12 mps 739 mmHg 46%
    22:00 +5°C° 0.1 mm 13 mps 740 mmHg 42%
    23:00 +4°C° 0.2 mm 12 mps 741 mmHg 45%

    Day after tomorrow, 18 January, Thursday

    Time Temperature Precipitation Wind Pressure Humidity
    00:00 +4°C° 0.2 mm 11 mps 742 mmHg 49%
    01:00 +5°C° 0.2 mm 10 mps 743 mmHg 53%
    02:00 +3°C° 0 mm 9 mps 744 mmHg 50%
    03:00 +4°C° 0 mm 8 mps 745 mmHg 48%
    04:00 +4°C° 0 mm 7 mps 745 mmHg 45%
    05:00 +4°C° 0 mm 7 mps 746 mmHg 43%
    06:00 +3°C° 0 mm 7 mps 747 mmHg 41%
    07:00 +3°C° 0 mm 7 mps 747 mmHg 39%
    08:00 +4°C° 0 mm 7 mps 748 mmHg 35%
    09:00 +7°C° 0 mm 6 mps 748 mmHg 31%
    10:00 +8°C° 0 mm 6 mps 749 mmHg 27%
    11:00 +9°C° 0 mm 5 mps 748 mmHg 25%
    12:00 +10°C° 0 mm 5 mps 748 mmHg 23%
    13:00 +12°C° 0 mm 4 mps 748 mmHg 21%
    14:00 +11°C° 0 mm 4 mps 748 mmHg 25%
    15:00 +11°C° 0 mm 3 mps 748 mmHg 28%
    16:00 +11°C° 0 mm 3 mps 748 mmHg 32%
    17:00 +10°C° 0 mm 4 mps 747 mmHg 35%
    18:00 +7°C° 0 mm 4 mps 747 mmHg 38%
    19:00 +6°C° 0 mm 5 mps 747 mmHg 41%
    20:00 +6°C° 0 mm 5 mps 747 mmHg 44%
    21:00 +6°C° 0 mm 5 mps 747 mmHg 47%
    22:00 +6°C° 0 mm 5 mps 747 mmHg 50%
    23:00 +6°C° 0 mm 5 mps 747 mmHg 54%

    19 January, Friday

    Time Temperature Precipitation Wind Pressure Humidity
    00:00 +6°C° 0 mm 5 mps 746 mmHg 58%
    01:00 +6°C° 0 mm 5 mps 746 mmHg 61%
    02:00 +6°C° 0 mm 5 mps 745 mmHg 65%
    03:00 +6°C° 0 mm 5 mps 745 mmHg 68%
    04:00 +6°C° 0 mm 5 mps 745 mmHg 72%
    05:00 +6°C° 0 mm 5 mps 745 mmHg 75%
    06:00 +6°C° 0 mm 5 mps 744 mmHg 78%
    07:00 +6°C° 0 mm 5 mps 744 mmHg 80%
    08:00 +7°C° 0 mm 6 mps 744 mmHg 75%
    09:00 +9°C° 0 mm 6 mps 744 mmHg 71%
    10:00 +11°C° 0 mm 7 mps 744 mmHg 66%
    11:00 +11°C° 0 mm 7 mps 744 mmHg 63%
    12:00 +13°C° 0 mm 6 mps 743 mmHg 60%
    13:00 +14°C° 0 mm 6 mps 743 mmHg 57%
    14:00 +14°C° 0 mm 6 mps 742 mmHg 59%
    15:00 +13°C° 0 mm 6 mps 742 mmHg 62%
    16:00 +13°C° 0 mm 5 mps 742 mmHg 65%
    17:00 +12°C° 0 mm 5 mps 742 mmHg 68%
    18:00 +10°C° 0 mm 5 mps 741 mmHg 71%
    19:00 +10°C° 0 mm 5 mps 741 mmHg 74%
    20:00 +9°C° 0 mm 6 mps 741 mmHg 75%
    21:00 +9°C° 0 mm 6 mps 741 mmHg 76%
    22:00 +9°C° 0 mm 6 mps 741 mmHg 77%
    23:00 +9°C° 0 mm 6 mps 740 mmHg 77%

    20 January, Saturday

    Time Temperature Precipitation Wind Pressure Humidity
    00:00 +9°C° 0 mm 6 mps 740 mmHg 78%
    01:00 +9°C° 0 mm 6 mps 739 mmHg 78%
    02:00 +9°C° 0 mm 6 mps 739 mmHg 78%
    03:00 +9°C° 0 mm 6 mps 738 mmHg 77%
    04:00 +9°C° 0 mm 6 mps 738 mmHg 77%
    05:00 +9°C° 0 mm 6 mps 738 mmHg 77%
    06:00 +9°C° 0 mm 6 mps 737 mmHg 77%
    07:00 +9°C° 0 mm 6 mps 737 mmHg 77%
    08:00 +10°C° 0 mm 7 mps 737 mmHg 74%
    09:00 +10°C° 0 mm 7 mps 737 mmHg 71%
    10:00 +11°C° 0 mm 7 mps 737 mmHg 67%
    11:00 +11°C° 0 mm 7 mps 737 mmHg 62%
    12:00 +12°C° 0 mm 8 mps 736 mmHg 56%
    13:00 +12°C° 0 mm 8 mps 736 mmHg 50%
    14:00 +11°C° 0 mm 9 mps 735 mmHg 49%
    15:00 +10°C° 0 mm 9 mps 735 mmHg 49%
    16:00 +8°C° 0 mm 9 mps 735 mmHg 48%
    17:00 +7°C° 0 mm 9 mps 735 mmHg 51%
    18:00 +6°C° 0 mm 9 mps 734 mmHg 53%
    19:00 +5°C° 0 mm 8 mps 734 mmHg 55%
    20:00 +4°C° 0.1 mm 8 mps 734 mmHg 58%
    21:00 +4°C° 0.1 mm 8 mps 734 mmHg 62%
    22:00 +2°C° 0.1 mm 8 mps 734 mmHg 66%
    23:00 +2°C° 0.1 mm 8 mps 734 mmHg 67%

    21 January, Sunday

    Time Temperature Precipitation Wind Pressure Humidity
    00:00 +2°C° 0.1 mm 8 mps 734 mmHg 68%
    01:00 +1°C° 0.1 mm 9 mps 734 mmHg 69%
    02:00 +1°C° 0.1 mm 8 mps 734 mmHg 70%
    03:00 +1°C° 0.1 mm 8 mps 733 mmHg 71%
    04:00 +1°C° 0.1 mm 8 mps 733 mmHg 72%
    05:00 +1°C° 0.6 mm 9 mps 734 mmHg 71%
    06:00 +2°C° 0.6 mm 10 mps 734 mmHg 71%
    07:00 +2°C° 0.6 mm 11 mps 735 mmHg 71%
    08:00 +2°C° 0.2 mm 12 mps 735 mmHg 66%
    09:00 +3°C° 0.2 mm 12 mps 736 mmHg 62%
    10:00 +3°C° 0.2 mm 13 mps 736 mmHg 57%
    11:00 +4°C° 0 mm 13 mps 737 mmHg 54%
    12:00 +4°C° 0 mm 13 mps 737 mmHg 51%
    13:00 +4°C° 0 mm 13 mps 737 mmHg 48%
    14:00 +4°C° 0 mm 13 mps 738 mmHg 48%
    15:00 +3°C° 0 mm 13 mps 739 mmHg 49%
    16:00 +3°C° 0 mm 12 mps 740 mmHg 49%
    17:00 +2°C° 0.1 mm 12 mps 740 mmHg 52%
    18:00 +2°C° 0.1 mm 11 mps 741 mmHg 54%
    19:00 +1°C° 0.1 mm 10 mps 742 mmHg 57%
    20:00 +1°C° 0 mm 10 mps 742 mmHg 57%
    21:00 +1°C° 0 mm 9 mps 743 mmHg 58%
    22:00 +1°C° 0 mm 9 mps 743 mmHg 59%
    23:00 0°C° 0 mm 9 mps 744 mmHg 59%
    Show more